#timestamp,LO_Frequency,Hit,StdDev 
1634698815.8,286046999.7,N
1634698835.6,286046998.4,N
1634698855.4,286047000.5,N
1634698875.3,286047002.5,N
1634698895.1,286046999.7,N
1634698915.8,286047002.6,N
1634698935.7,286047002.5,N
1634698955.5,286047001.3,N
1634698975.4,286047001.7,N
1634698995.2,286047001.8,N
1634699015.0,286046999.7,N
1634699015.9,286046999.7,N
1634699035.8,286047001.5,N
1634699055.6,286047003.2,N
1634699075.4,286047003.5,N
1634699095.3,286047005.7,Y
1634699115.1,286047008.8,P
1634699135.9,286047008.2,N
1634699155.7,286047008.2,N
1634699175.5,286047006.4,N
1634699195.4,286047003.3,N
1634699215.2,286047003.2,N
1634699235.0,286047003.5,N
1634699236.0,286047003.5,N
1634699255.8,286047005.2,N
1634699275.6,286047005.3,N
1634699295.5,286047004.8,N
1634699315.3,286047005.8,N
1634699335.1,286047005.8,N
1634699355.9,286047005.4,N
1634699375.7,286047006.2,Y
1634699395.6,286047001.7,P
1634699415.4,286047004.3,N
1634699435.2,286047002.0,N
1634699455.1,286047001.7,N
1634699456.0,286047001.7,N
1634699475.8,286047002.6,N
1634699495.7,286047000.3,N
1634699515.5,286047001.2,N
1634699535.3,286047001.2,N
1634699555.2,286046998.1,N
1634699575.9,286046998.7,N
1634699595.7,286046998.9,N
1634699615.6,286047001.2,N
1634699635.4,286047000.4,N
1634699655.3,286046998.9,N
1634699675.1,286046999.4,N
1634699676.0,286046999.4,N
1634699695.8,286046999.2,N
1634699715.7,286046998.1,N
1634699735.5,286047000.5,N
1634699755.3,286047000.9,N
1634699775.2,286047000.6,N
1634699795.0,286047000.9,N
1634699795.9,286047000.9,N
1634699815.8,286046999.4,N
1634699835.6,286046998.2,N
1634699855.4,286047004.4,N
1634699875.3,286047003.7,N
1634699895.1,286047001.6,N
1634699915.8,286047000.3,N
1634699935.7,286047002.2,N
1634699955.5,286047002.2,N
1634699975.4,286047001.4,N
1634699995.2,286047004.2,N
1634700015.0,286047004.1,N
1634700015.9,286047004.1,N
1634700035.8,286047000.0,N
1634700055.6,286047000.7,N
1634700075.5,286047002.4,N
1634700095.3,286047002.6,N
1634700115.1,286047000.4,N
1634700135.9,286047002.6,N
1634700155.7,286047000.0,N
1634700175.5,286047000.0,N
1634700195.4,286046999.7,N
1634700215.2,286047001.5,N
1634700235.0,286047001.4,N
1634700236.0,286047001.4,N
1634700255.8,286047003.1,N
1634700275.6,286047005.3,Y
1634700295.5,286047004.2,P
1634700315.3,286047003.8,N
1634700335.1,286047004.0,P
1634700355.9,286047004.4,Y
1634700375.7,286047000.9,P
1634700395.6,286047002.4,N
1634700415.4,286047000.7,N
1634700435.2,286046999.9,N
1634700455.1,286047000.3,N
1634700456.0,286047000.3,N
1634700475.8,286047000.4,N
1634700495.7,286046998.7,N
1634700515.5,286046996.8,N
1634700535.3,286046997.3,N
1634700555.2,286046995.3,N
1634700575.9,286046997.5,N
1634700595.7,286046997.6,N
1634700615.6,286046997.4,N
1634700635.4,286046998.4,N
1634700655.3,286046998.5,N
1634700675.1,286046998.8,N
1634700676.0,286046998.8,N
1634700695.8,286046996.8,N
1634700715.7,286046995.6,N
1634700735.5,286046995.3,N
1634700755.3,286046996.2,N
1634700775.2,286046995.8,N
1634700795.0,286046998.0,N
1634700795.9,286046998.0,N
1634700815.8,286046996.6,N
1634700835.6,286046997.1,N
1634700855.4,286047000.8,N
1634700875.3,286047000.9,N
1634700895.1,286046998.3,N
1634700915.8,286047001.0,N
1634700935.7,286046998.5,N
1634700955.5,286046999.3,N
1634700975.4,286046996.5,N
1634700995.2,286046999.6,N
1634701015.0,286047001.2,N
1634701015.9,286047001.2,N
1634701035.8,286047000.5,N
1634701055.6,286047000.5,N
1634701075.5,286047000.8,N
1634701095.3,286046999.5,N
1634701115.1,286046998.4,N
1634701135.9,286046998.1,N
1634701155.7,286046998.6,N
1634701175.5,286047000.6,N
1634701195.4,286047001.4,N
1634701215.2,286047002.5,N
1634701235.1,286046998.3,N
1634701236.0,286046998.3,N
1634701255.8,286047000.8,N
1634701275.6,286047000.8,N
1634701295.5,286047002.4,N
1634701315.3,286047001.1,N
1634701335.2,286046998.6,N
1634701355.9,286046998.7,N
1634701375.7,286047000.6,N
1634701395.6,286046998.4,N
1634701415.4,286046998.5,N
1634701435.2,286047000.3,N
1634701455.1,286047001.6,N
1634701456.0,286047001.6,N
1634701475.8,286047003.7,N
1634701495.7,286047002.3,N
1634701515.5,286047001.2,N
1634701535.3,286047000.5,N
1634701555.2,286047000.9,N
1634701575.0,286047000.9,N
1634701575.9,286047000.9,N
1634701595.8,286047000.3,N
1634701615.6,286047001.1,N
1634701635.4,286046998.6,N
1634701655.3,286046998.5,N
1634701675.1,286047002.0,N
1634701695.8,286047000.0,N
1634701715.7,286046998.3,N
1634701735.5,286046999.0,N
1634701755.4,286046998.2,N
1634701775.2,286046998.2,N
1634701795.0,286046999.4,N
1634701795.9,286046999.4,N
1634701815.8,286046998.4,N
1634701835.6,286046997.7,N
1634701855.4,286046999.3,N
1634701875.3,286046997.1,N
1634701895.1,286046999.1,N
1634701915.9,286046999.5,N
1634701965.7,286046998.9,E
1634701975.7,286046998.2,N
1634701995.5,286047000.0,P
1634702015.3,286046998.1,N
1634702035.2,286046998.2,N
1634702055.9,286047000.8,N
1634702075.7,286047000.2,N
1634702095.6,286047000.0,N
1634702115.4,286047000.3,N
1634702135.3,286047002.3,N
1634702155.1,286047002.6,N
1634702156.0,286047002.6,N
1634702175.8,286047000.1,N
1634702195.7,286046999.8,N
1634702215.5,286047001.1,N
1634702235.4,286047002.6,N
1634702255.2,286047001.9,N
1634702275.0,286047006.0,Y
1634702275.9,286047006.0,P
1634702295.8,286047007.2,N
1634702315.6,286047005.4,N
1634702335.5,286047003.0,N
1634702355.3,286047003.6,N
1634702375.1,286047003.8,N
1634702395.9,286047004.4,N
